• In Uzbekistan
  • List of Countries
  • For 7 days
  • Water Temperature
  • Satellite Maps
  • Weather Map
  • Weather Widgets
  • user-avatar
    Login

    Hourly Weather Wiktoria

    Today, 28 June, Wednesday

    Time Temperature Precipitation Wind Pressure Humidity
    00:00 +1°C° 0 mm 0 mps 756 mmHg 99%
    01:00 +1°C° 0 mm 0 mps 756 mmHg 99%
    02:00 +1°C° 0 mm 0 mps 756 mmHg 99%
    03:00 +1°C° 0 mm 0 mps 755 mmHg 99%
    04:00 +3°C° 0 mm 0 mps 755 mmHg 99%
    05:00 +2°C° 0 mm 0 mps 755 mmHg 99%
    06:00 +2°C° 0 mm 0 mps 755 mmHg 99%
    07:00 +2°C° 0 mm 0 mps 755 mmHg 99%
    08:00 +4°C° 0 mm 0 mps 755 mmHg 92%
    09:00 +7°C° 0 mm 0 mps 755 mmHg 84%
    10:00 +9°C° 0 mm 0 mps 756 mmHg 77%
    11:00 +11°C° 0 mm 0 mps 755 mmHg 71%
    12:00 +12°C° 0 mm 0 mps 755 mmHg 66%
    13:00 +14°C° 0 mm 1 mps 755 mmHg 60%
    14:00 +14°C° 0 mm 1 mps 754 mmHg 63%
    15:00 +13°C° 0 mm 0 mps 754 mmHg 65%
    16:00 +13°C° 0 mm 0 mps 754 mmHg 67%
    17:00 +9°C° 0 mm 0 mps 754 mmHg 77%
    18:00 +6°C° 0 mm 0 mps 754 mmHg 88%
    19:00 +3°C° 0 mm 0 mps 754 mmHg 98%
    20:00 +2°C° 0 mm 0 mps 755 mmHg 98%
    21:00 +2°C° 0 mm 0 mps 755 mmHg 98%
    22:00 +1°C° 0 mm 0 mps 755 mmHg 99%
    23:00 +2°C° 0 mm 0 mps 755 mmHg 99%

    Tomorrow, 29 June, Thursday

    Time Temperature Precipitation Wind Pressure Humidity
    00:00 +2°C° 0 mm 0 mps 755 mmHg 99%
    01:00 +2°C° 0 mm 0 mps 755 mmHg 99%
    02:00 +1°C° 0 mm 0 mps 754 mmHg 99%
    03:00 +1°C° 0 mm 0 mps 754 mmHg 99%
    04:00 0°C° 0 mm 0 mps 754 mmHg 99%
    05:00 0°C° 0 mm 0 mps 754 mmHg 99%
    06:00 0°C° 0 mm 0 mps 754 mmHg 99%
    07:00 0°C° 0 mm 0 mps 754 mmHg 99%
    08:00 +3°C° 0 mm 0 mps 755 mmHg 92%
    09:00 +6°C° 0 mm 0 mps 755 mmHg 85%
    10:00 +10°C° 0 mm 1 mps 755 mmHg 79%
    11:00 +12°C° 0 mm 1 mps 755 mmHg 73%
    12:00 +13°C° 0 mm 1 mps 755 mmHg 68%
    13:00 +14°C° 0 mm 1 mps 754 mmHg 63%
    14:00 +14°C° 0.1 mm 1 mps 754 mmHg 66%
    15:00 +13°C° 0.1 mm 1 mps 754 mmHg 69%
    16:00 +13°C° 0.1 mm 1 mps 754 mmHg 72%
    17:00 +11°C° 0 mm 1 mps 754 mmHg 78%
    18:00 +9°C° 0 mm 1 mps 755 mmHg 84%
    19:00 +8°C° 0 mm 1 mps 756 mmHg 90%
    20:00 +8°C° 0 mm 1 mps 756 mmHg 88%
    21:00 +7°C° 0 mm 2 mps 757 mmHg 85%
    22:00 +8°C° 0 mm 2 mps 757 mmHg 83%
    23:00 +6°C° 0 mm 2 mps 758 mmHg 87%

    Day after tomorrow, 30 June, Friday

    Time Temperature Precipitation Wind Pressure Humidity
    00:00 +6°C° 0 mm 1 mps 758 mmHg 91%
    01:00 +5°C° 0 mm 1 mps 758 mmHg 95%
    02:00 +5°C° 0 mm 1 mps 758 mmHg 96%
    03:00 +4°C° 0 mm 1 mps 759 mmHg 96%
    04:00 +4°C° 0 mm 1 mps 759 mmHg 96%
    05:00 +3°C° 0 mm 1 mps 760 mmHg 97%
    06:00 +3°C° 0 mm 1 mps 760 mmHg 97%
    07:00 +2°C° 0 mm 1 mps 760 mmHg 98%
    08:00 +4°C° 0 mm 1 mps 761 mmHg 90%
    09:00 +6°C° 0 mm 1 mps 761 mmHg 82%
    10:00 +7°C° 0 mm 1 mps 762 mmHg 74%
    11:00 +9°C° 0 mm 1 mps 761 mmHg 66%
    12:00 +10°C° 0 mm 1 mps 761 mmHg 59%
    13:00 +12°C° 0 mm 2 mps 760 mmHg 52%
    14:00 +12°C° 0 mm 1 mps 760 mmHg 52%
    15:00 +12°C° 0 mm 1 mps 760 mmHg 53%
    16:00 +11°C° 0 mm 1 mps 760 mmHg 54%
    17:00 +9°C° 0 mm 1 mps 761 mmHg 63%
    18:00 +7°C° 0 mm 1 mps 761 mmHg 73%
    19:00 +5°C° 0 mm 1 mps 761 mmHg 82%
    20:00 +4°C° 0 mm 1 mps 761 mmHg 85%
    21:00 +4°C° 0 mm 1 mps 762 mmHg 87%
    22:00 +3°C° 0 mm 1 mps 762 mmHg 90%
    23:00 +3°C° 0 mm 1 mps 762 mmHg 91%

    1 July, Saturday

    Time Temperature Precipitation Wind Pressure Humidity
    00:00 +2°C° 0 mm 1 mps 761 mmHg 93%
    01:00 +1°C° 0 mm 1 mps 761 mmHg 95%
    02:00 +1°C° 0 mm 1 mps 761 mmHg 95%
    03:00 +1°C° 0 mm 1 mps 761 mmHg 95%
    04:00 0°C° 0 mm 1 mps 761 mmHg 95%
    05:00 0°C° 0 mm 1 mps 761 mmHg 95%
    06:00 0°C° 0 mm 1 mps 761 mmHg 95%
    07:00 0°C° 0 mm 1 mps 761 mmHg 95%
    08:00 +2°C° 0 mm 1 mps 762 mmHg 84%
    09:00 +4°C° 0 mm 1 mps 762 mmHg 74%
    10:00 +6°C° 0 mm 1 mps 762 mmHg 63%
    11:00 +8°C° 0 mm 1 mps 761 mmHg 57%
    12:00 +9°C° 0 mm 1 mps 760 mmHg 51%
    13:00 +11°C° 0 mm 1 mps 760 mmHg 45%
    14:00 +11°C° 0 mm 1 mps 759 mmHg 47%
    15:00 +11°C° 0 mm 1 mps 759 mmHg 48%
    16:00 +11°C° 0 mm 1 mps 758 mmHg 49%
    17:00 +9°C° 0 mm 1 mps 758 mmHg 58%
    18:00 +6°C° 0 mm 1 mps 759 mmHg 66%
    19:00 +4°C° 0 mm 1 mps 759 mmHg 75%
    20:00 +4°C° 0 mm 1 mps 759 mmHg 77%
    21:00 +3°C° 0 mm 1 mps 759 mmHg 78%
    22:00 +3°C° 0 mm 1 mps 759 mmHg 80%
    23:00 +3°C° 0 mm 1 mps 758 mmHg 81%

    2 July, Sunday

    Time Temperature Precipitation Wind Pressure Humidity
    00:00 +2°C° 0 mm 1 mps 758 mmHg 81%
    01:00 +2°C° 0 mm 1 mps 758 mmHg 82%
    02:00 +2°C° 0 mm 1 mps 757 mmHg 81%
    03:00 +2°C° 0 mm 1 mps 757 mmHg 81%
    04:00 +2°C° 0 mm 1 mps 757 mmHg 80%
    05:00 +2°C° 0 mm 1 mps 757 mmHg 80%
    06:00 +2°C° 0 mm 1 mps 757 mmHg 80%
    07:00 +2°C° 0 mm 1 mps 757 mmHg 80%
    08:00 +2°C° 0 mm 2 mps 757 mmHg 71%
    09:00 +4°C° 0 mm 2 mps 757 mmHg 63%
    10:00 +6°C° 0 mm 2 mps 756 mmHg 55%
    11:00 +8°C° 0 mm 2 mps 755 mmHg 50%
    12:00 +9°C° 0 mm 2 mps 754 mmHg 46%
    13:00 +12°C° 0 mm 2 mps 754 mmHg 41%
    14:00 +12°C° 0 mm 2 mps 753 mmHg 43%
    15:00 +12°C° 0 mm 2 mps 752 mmHg 46%
    16:00 +12°C° 0 mm 2 mps 751 mmHg 48%
    17:00 +10°C° 0 mm 2 mps 751 mmHg 54%
    18:00 +9°C° 0 mm 2 mps 751 mmHg 61%
    19:00 +8°C° 0 mm 2 mps 751 mmHg 67%
    20:00 +9°C° 0 mm 3 mps 750 mmHg 66%
    21:00 +10°C° 0 mm 3 mps 749 mmHg 65%
    22:00 +11°C° 0 mm 3 mps 749 mmHg 64%
    23:00 +10°C° 0.3 mm 3 mps 748 mmHg 73%

    3 July, Monday

    Time Temperature Precipitation Wind Pressure Humidity
    00:00 +10°C° 0.3 mm 3 mps 747 mmHg 83%
    01:00 +10°C° 0.3 mm 3 mps 746 mmHg 93%
    02:00 +10°C° 0.7 mm 3 mps 746 mmHg 94%
    03:00 +10°C° 0.7 mm 3 mps 745 mmHg 95%
    04:00 +10°C° 0.7 mm 3 mps 744 mmHg 96%
    05:00 +9°C° 0.4 mm 3 mps 744 mmHg 96%
    06:00 +9°C° 0.4 mm 2 mps 744 mmHg 95%
    07:00 +8°C° 0.4 mm 2 mps 744 mmHg 95%
    08:00 +9°C° 0 mm 3 mps 745 mmHg 90%
    09:00 +9°C° 0 mm 3 mps 745 mmHg 85%
    10:00 +9°C° 0 mm 3 mps 745 mmHg 81%
    11:00 +9°C° 0.1 mm 3 mps 745 mmHg 75%
    12:00 +10°C° 0.1 mm 3 mps 744 mmHg 69%
    13:00 +10°C° 0.1 mm 3 mps 744 mmHg 63%
    14:00 +11°C° 0 mm 3 mps 744 mmHg 60%
    15:00 +11°C° 0 mm 3 mps 744 mmHg 57%
    16:00 +12°C° 0 mm 2 mps 744 mmHg 54%
    17:00 +12°C° 0 mm 2 mps 744 mmHg 56%
    18:00 +10°C° 0 mm 2 mps 743 mmHg 59%
    19:00 +10°C° 0 mm 3 mps 743 mmHg 62%
    20:00 +9°C° 0.6 mm 3 mps 743 mmHg 71%
    21:00 +9°C° 0.6 mm 3 mps 743 mmHg 80%
    22:00 +9°C° 0.6 mm 3 mps 743 mmHg 89%
    23:00 +8°C° 0.2 mm 3 mps 744 mmHg 88%
    Show more